Location: Ahstedt
(52.2048°N, 10.1060°E)
Time: 00:29:20
(UTC+00:00)

Timation 1 Rocket - Pass Details

Date: 18 January 2026
Orbit: 895 x 908 km, 70.0° (Epoch: 18 February)

Event Time Altitude Azimuth Distance (km) Brightness Sun altitude
Exits shadow 04:19:02 70° 230° (SW) 962 4.2 -26.9°
Drops below altitude 10° 04:24:49 10° 160° (SSE) 2,586 6.9 -26.0°
Sets 04:27:19 0° 158° (SSE) 3,525 7.7 -25.6°
